Wind_Speed
8 8 8 10 11 12 12 12 12 11 11 10 12 13 14 16 16 16 16 16 16 16 16 17 17 16 15 14 14 13 12 12 11 10 10 9 8 7 6 6 6 7 7 8
8 9 10 11 11 12 12 13 13 12 12 13 14 14 15 15 15 16 16 16 16 16 16 17 17 16 15 15 14 14 13 12 12 12 11 10 9 8 8 8 8 8 9 10
9 9 10 10 11 12 14 14 14 14 14 15 15 16 15 15 15 15 16 16 16 17 17 17 17 17 16 15 15 15 14 14 13 13 12 11 11 10 10 10 10 10 10 11
9 9 10 9 11 12 14 14 15 15 16 16 16 16 15 15 15 15 16 16 16 17 17 17 17 17 16 16 16 16 15 14 14 14 13 13 12 12 12 12 12 12 12 13
10 9 9 10 11 12 13 14 15 16 16 16 16 16 16 17 17 16 17 17 17 17 17 18 18 17 17 16 16 16 16 15 15 15 15 14 14 14 14 13 14 14 14 15
13 12 11 11 12 12 13 14 15 15 16 16 16 16 16 17 17 16 17 17 17 17 17 17 18 18 17 17 17 17 17 16 16 16 16 16 16 16 16 16 15 16 17 17
14 14 14 15 13 14 15 15 15 15 16 15 16 16 17 16 16 17 16 16 17 17 17 18 19 18 18 18 18 18 18 18 18 17 17 17 17 17 18 18 18 18 19 19
15 15 17 16 15 16 16 16 15 16 16 17 16 17 17 17 17 17 17 17 17 17 18 18 19 19 19 19 19 19 19 19 19 19 19 19 19 19 20 20 20 21 21 22
17 18 17 17 17 17 17 17 17 17 17 18 17 17 18 18 18 18 18 18 18 19 19 20 20 20 20 20 20 21 21 21 21 21 21 21 21 21 22 22 23 23 24 25
20 20 20 20 20 19 19 18 19 19 19 19 18 18 18 19 19 19 19 19 20 21 21 22 22 22 23 22 22 23 23 23 23 23 23 23 23 24 24 25 25 26 27 28
22 22 23 22 21 21 20 20 21 20 20 20 20 20 20 19 19 20 21 21 22 22 22 23 24 25 25 24 24 25 25 25 25 25 25 25 26 26 27 27 28 29 30 30
25 25 25 25 23 22 21 21 20 21 21 21 21 21 21 21 21 21 22 23 23 24 24 25 26 26 27 27 27 27 27 27 27 27 28 28 28 29 29 30 31 32 32 33
28 27 27 27 26 25 23 22 22 22 22 22 22 23 23 22 22 23 23 23 24 25 26 26 27 28 28 28 29 29 29 29 29 30 30 30 31 31 32 33 34 34 35 36
31 30 29 28 28 27 26 25 25 25 24 24 24 25 25 25 25 25 25 25 26 26 27 27 28 29 29 30 30 31 31 31 31 32 32 33 33 34 35 35 36 37 38 38
32 32 31 30 30 29 29 28 28 28 27 27 27 27 27 27 27 28 28 28 28 28 28 29 30 30 31 32 32 33 33 33 34 34 35 36 36 37 38 38 39 39 40 41
33 34 33 32 32 31 31 31 31 31 30 30 30 29 29 29 29 29 29 30 30 30 30 30 31 32 33 33 34 34 35 35 36 37 38 38 39 40 40 41 41 42 43 44
36 36 35 35 34 34 33 33 33 33 33 33 33 32 32 32 31 31 31 31 32 32 32 33 33 33 35 36 36 37 37 38 39 39 40 41 42 42 43 44 44 45 46 46
37 37 37 37 37 36 36 35 35 35 35 35 35 35 35 35 34 34 34 34 34 34 34 35 36 36 37 37 38 39 39 40 41 42 43 43 44 45 46 47 47 48 49 49
39 39 38 38 38 38 38 37 37 37 36 36 37 37 37 37 37 37 37 36 36 36 36 37 38 38 39 39 40 41 42 43 44 45 45 46 47 48 49 50 50 51 52 52
39 39 39 39 39 39 39 39 39 39 39 39 39 39 39 39 39 39 39 39 39 39 40 40 41 41 42 43 43 44 45 45 46 47 48 49 50 50 51 52 53 53 53 54
39 39 39 40 39 39 40 40 40 40 40 40 40 40 41 41 42 42 42 42 42 42 43 43 44 44 45 46 46 47 48 48 49 50 51 51 52 52 53 54 54 55 55 55
40 40 40 41 41 41 41 40 40 41 41 41 41 42 42 43 43 44 44 44 44 45 45 46 46 46 47 48 49 49 50 51 52 52 53 53 54 54 55 55 55 56 56 57
42 42 42 42 42 42 42 41 41 42 42 42 43 43 44 44 45 45 46 46 47 47 48 49 49 50 50 51 51 51 52 53 53 54 54 55 55 56 56 56 57 58 58 59
42 42 43 43 43 43 44 44 44 44 44 45 45 45 46 46 47 47 48 48 49 49 50 51 52 52 53 53 53 54 54 54 55 55 56 56 57 57 58 58 58 59 60 60
42 42 42 43 43 44 44 45 45 45 45 46 46 47 47 48 48 48 49 50 50 51 52 53 53 54 55 55 56 56 56 57 57 57 57 58 59 59 59 60 60 60 60 61
40 40 41 41 42 42 43 43 44 44 45 46 46 47 48 49 49 50 51 51 52 53 53 54 55 55 56 56 57 57 57 58 59 59 60 60 60 60 59 60 60 60 60 60
40 41 41 42 43 43 43 44 44 45 45 46 47 48 49 50 50 51 52 52 52 52 52 53 54 55 55 56 56 57 58 59 59 60 60 60 60 60 60 60 60 60 60 60
Wind_Direction
231 244 243 226 217 213 210 211 209 208 205 208 218 222 224 220 216 216 217 220 222 221 219 219 218 218 219 221 223 226 230 235 238 240 245 252 260 271 284 298 310 318 322 323
231 243 244 235 230 227 214 213 215 219 215 219 223 224 225 222 221 221 223 224 225 225 222 222 220 220 220 222 225 228 231 236 239 243 248 254 261 269 278 289 298 306 313 317
230 232 240 242 237 230 225 223 225 225 224 230 233 230 229 227 226 227 225 225 225 226 226 226 225 223 223 225 227 229 233 238 241 246 251 256 261 268 276 283 289 296 304 310
231 231 243 243 241 237 232 229 229 228 228 231 235 235 233 232 231 229 229 229 228 228 226 226 227 226 227 228 229 231 236 241 244 248 253 257 262 268 275 280 286 291 297 302
233 234 239 245 249 245 236 233 230 230 231 232 236 237 235 233 232 231 231 231 230 229 227 226 227 229 230 232 233 235 239 243 247 251 255 258 263 268 274 279 284 289 294 298
233 233 239 244 246 242 241 238 231 230 231 234 236 236 235 234 233 232 232 232 232 231 231 230 230 231 233 235 236 238 241 244 249 253 256 260 264 268 273 277 282 287 291 294
236 237 239 242 243 242 241 240 235 234 232 235 236 237 236 236 235 232 234 234 234 233 233 232 233 234 236 238 240 242 245 249 253 256 258 261 265 269 273 277 281 286 289 293
237 239 240 244 245 241 242 243 241 239 238 238 238 238 237 236 234 234 236 236 236 235 235 235 237 238 239 241 244 247 249 252 255 258 261 263 266 270 274 277 281 286 289 292
241 243 245 246 246 243 242 244 244 242 241 243 242 241 239 236 235 236 239 239 238 238 238 239 240 241 242 245 248 250 252 254 256 259 263 265 268 272 275 278 282 286 288 291
243 245 248 248 249 247 245 245 246 246 244 244 243 242 241 239 238 239 241 242 242 242 242 242 242 243 246 248 251 252 254 256 258 261 264 267 269 273 276 279 282 286 289 291
245 246 250 251 251 250 249 247 248 249 247 246 245 245 245 244 244 242 244 245 245 244 244 243 244 246 249 251 253 255 256 258 259 262 265 268 271 274 277 280 284 287 289 291
247 247 250 251 251 250 249 250 250 250 248 246 245 246 249 250 250 250 248 248 247 247 247 247 247 249 251 253 255 257 259 260 262 265 267 270 273 276 278 281 284 287 289 291
248 249 251 252 253 252 252 251 252 252 250 248 248 249 251 251 252 251 251 250 249 249 249 250 251 252 253 255 257 259 261 263 264 266 269 271 274 277 280 282 285 287 289 291
248 250 252 252 253 252 253 253 253 253 252 251 250 251 253 253 253 253 253 253 252 252 251 252 253 255 256 258 259 260 262 264 266 268 270 272 275 278 281 283 285 287 289 290
249 251 252 252 253 253 253 253 253 253 253 252 252 253 254 254 255 255 255 255 255 256 256 255 256 257 258 260 261 262 263 265 267 269 271 274 276 279 281 283 285 287 289 290
249 251 252 252 252 253 253 253 254 253 253 252 252 253 254 255 256 256 256 256 257 258 258 258 258 258 259 261 262 264 266 267 269 271 273 275 277 279 281 283 285 287 288 290
249 251 252 253 253 254 254 254 254 254 253 253 253 254 255 256 256 256 256 257 257 258 259 260 261 261 262 263 264 266 267 269 271 272 274 276 278 280 281 283 285 286 288 289
250 251 252 252 253 254 254 254 254 254 254 254 254 255 256 256 256 257 257 258 258 259 260 262 263 264 265 266 267 268 270 271 272 274 275 277 279 280 282 283 284 286 287 288
250 251 252 253 254 255 255 255 255 254 255 255 255 255 256 257 258 258 258 259 260 261 262 263 264 265 266 268 269 271 272 273 274 275 277 278 279 281 282 283 285 286 287 288
250 251 252 253 254 255 256 256 256 256 257 257 257 257 257 258 259 260 260 260 261 262 263 264 265 266 268 269 270 272 273 274 275 277 278 279 280 282 283 284 285 286 287 287
251 252 253 253 254 255 256 257 257 257 258 258 258 258 258 259 260 261 262 262 263 264 265 266 267 268 269 271 272 273 274 275 276 278 279 280 281 282 283 284 284 285 286 287
252 252 253 254 255 256 257 257 258 258 258 259 259 259 260 260 261 262 263 264 265 266 267 268 269 270 271 272 273 274 275 276 277 279 280 281 282 282 283 283 284 285 286 286
254 254 255 255 255 256 256 257 258 259 259 260 260 261 262 262 263 263 264 265 266 267 268 269 270 270 271 272 274 275 276 277 278 279 280 281 282 283 283 284 285 285 286 287
255 255 255 255 256 257 257 258 259 260 260 261 262 262 263 263 264 265 265 266 267 268 269 270 270 271 272 273 274 275 276 278 279 280 281 281 282 283 283 284 285 286 286 287
255 256 256 257 257 258 259 260 260 261 261 262 262 263 263 264 265 266 267 267 268 269 269 270 271 272 273 274 275 276 276 277 278 279 280 281 281 282 283 284 285 285 286 287
256 257 257 257 258 259 260 261 261 262 262 263 263 264 265 266 266 267 268 268 269 270 270 270 271 272 273 274 275 276 277 278 278 279 280 281 282 282 283 284 284 285 286 287
257 258 258 259 259 259 260 261 263 263 264 264 264 265 266 267 268 268 269 269 270 271 271 272 272 273 274 275 276 276 277 278 279 280 281 281 282 282 282 283 284 285 286 287
Height
5805 5807 5808 5810 5812 5814 5816 5818 5819 5821 5823 5826 5829 5831 5834 5836 5839 5842 5844 5847 5850 5852 5854 5857 5860 5862 5865 5867 5869 5872 5874 5875 5877 5878 5879 5880 5880 5881 5881 5881 5880 5880 5879 5878
5805 5806 5807 5808 5810 5813 5815 5816 5818 5820 5823 5825 5827 5829 5831 5834 5837 5839 5842 5844 5847 5849 5852 5854 5857 5859 5862 5864 5867 5869 5871 5873 5874 5876 5877 5877 5878 5879 5879 5879 5879 5878 5877 5877
5803 5804 5806 5808 5809 5811 5813 5815 5817 5819 5822 5823 5825 5827 5829 5831 5834 5836 5839 5842 5844 5847 5849 5851 5854 5856 5859 5862 5864 5866 5868 5870 5871 5873 5874 5875 5876 5876 5876 5876 5876 5876 5875 5874
5801 5803 5804 5808 5807 5809 5810 5812 5814 5816 5818 5820 5822 5824 5827 5829 5831 5834 5836 5839 5841 5843 5846 5848 5851 5853 5856 5858 5861 5863 5865 5867 5868 5870 5871 5872 5872 5873 5873 5873 5873 5873 5872 5871
5799 5800 5802 5804 5805 5806 5808 5810 5812 5814 5816 5818 5820 5822 5824 5826 5828 5831 5833 5835 5838 5840 5843 5845 5848 5850 5853 5855 5857 5859 5861 5863 5865 5866 5867 5868 5869 5869 5870 5870 5870 5870 5869 5868
5796 5798 5800 5802 5802 5804 5806 5807 5809 5810 5813 5815 5817 5819 5821 5823 5825 5827 5830 5832 5835 5837 5839 5842 5844 5847 5849 5851 5854 5856 5858 5859 5861 5862 5863 5864 5865 5865 5866 5866 5866 5865 5865 5864
5793 5795 5796 5798 5799 5802 5804 5805 5806 5808 5809 5811 5813 5815 5818 5819 5822 5824 5826 5829 5831 5834 5836 5838 5841 5843 5845 5848 5850 5852 5853 5855 5856 5858 5859 5860 5860 5861 5861 5861 5861 5861 5860 5859
5790 5791 5794 5794 5796 5798 5799 5800 5802 5804 5806 5808 5809 5811 5814 5816 5818 5820 5823 5825 5827 5830 5832 5834 5836 5839 5841 5843 5845 5847 5849 5850 5852 5853 5854 5855 5855 5856 5856 5856 5856 5855 5854 5853
5786 5789 5789 5790 5791 5793 5795 5796 5798 5800 5802 5804 5806 5808 5810 5812 5814 5816 5818 5821 5823 5825 5827 5830 5832 5834 5836 5838 5840 5842 5843 5845 5846 5847 5848 5849 5850 5850 5850 5850 5850 5849 5848 5847
5781 5783 5784 5785 5787 5789 5791 5792 5794 5796 5798 5800 5802 5803 5805 5807 5809 5811 5813 5816 5818 5820 5822 5824 5826 5828 5831 5833 5834 5836 5838 5839 5840 5841 5842 5843 5843 5844 5844 5843 5843 5842 5841 5840
5776 5778 5779 5780 5782 5784 5786 5788 5790 5791 5793 5795 5797 5799 5801 5803 5805 5806 5808 5810 5812 5814 5816 5818 5821 5823 5824 5826 5828 5830 5831 5832 5833 5835 5835 5836 5836 5836 5836 5836 5835 5835 5833 5832
5770 5772 5773 5775 5776 5778 5780 5782 5784 5786 5788 5790 5792 5793 5795 5797 5799 5801 5803 5804 5806 5808 5810 5812 5814 5816 5818 5820 5821 5823 5824 5825 5826 5827 5828 5828 5829 5829 5828 5828 5827 5826 5825 5823
5763 5765 5766 5768 5771 5773 5775 5777 5778 5780 5782 5784 5786 5788 5789 5792 5793 5795 5796 5798 5800 5801 5803 5805 5807 5809 5811 5812 5814 5815 5816 5817 5818 5819 5820 5820 5820 5820 5820 5819 5818 5816 5815 5813
5755 5758 5759 5762 5764 5766 5768 5770 5772 5774 5775 5777 5779 5781 5783 5785 5787 5788 5790 5792 5793 5794 5796 5798 5800 5801 5803 5804 5805 5807 5808 5809 5810 5810 5811 5811 5811 5810 5810 5809 5808 5806 5805 5803
5748 5750 5752 5754 5756 5758 5760 5762 5764 5766 5768 5770 5772 5774 5776 5778 5779 5781 5782 5784 5785 5787 5788 5790 5792 5793 5794 5795 5796 5798 5799 5799 5800 5800 5801 5801 5800 5800 5799 5798 5797 5796 5794 5792
5739 5741 5743 5745 5748 5750 5752 5754 5756 5758 5760 5762 5764 5766 5768 5769 5771 5773 5774 5776 5777 5779 5780 5781 5783 5784 5785 5786 5787 5788 5788 5789 5789 5790 5790 5790 5789 5788 5787 5786 5785 5784 5782 5780
5729 5731 5734 5736 5739 5741 5743 5745 5747 5749 5751 5753 5755 5757 5759 5761 5763 5764 5766 5767 5768 5770 5771 5772 5773 5774 5775 5776 5776 5777 5777 5778 5778 5778 5778 5778 5777 5776 5775 5774 5772 5771 5769 5766
5719 5722 5724 5726 5728 5731 5733 5735 5737 5739 5742 5744 5746 5748 5750 5751 5753 5755 5756 5757 5759 5760 5761 5762 5763 5764 5764 5765 5765 5766 5766 5766 5766 5766 5766 5765 5764 5763 5762 5760 5759 5757 5755 5752
5708 5711 5713 5716 5718 5721 5723 5725 5727 5729 5731 5733 5735 5737 5739 5741 5742 5744 5745 5747 5748 5749 5751 5751 5752 5752 5753 5753 5753 5753 5753 5753 5753 5753 5752 5751 5750 5749 5747 5746 5744 5742 5739 5737
5698 5700 5702 5705 5707 5710 5712 5714 5716 5718 5720 5722 5724 5726 5728 5729 5731 5733 5734 5735 5737 5738 5739 5739 5740 5740 5740 5740 5740 5740 5740 5739 5739 5738 5737 5737 5735 5734 5732 5730 5728 5726 5723 5721
5687 5689 5691 5694 5696 5698 5700 5702 5705 5707 5709 5710 5712 5714 5716 5717 5719 5720 5722 5723 5724 5725 5726 5726 5726 5727 5727 5726 5726 5726 5726 5725 5724 5723 5722 5721 5720 5718 5716 5714 5712 5709 5707 5704
5675 5678 5680 5682 5684 5686 5688 5690 5692 5694 5696 5698 5700 5701 5703 5704 5706 5707 5708 5710 5711 5711 5712 5712 5712 5712 5712 5712 5711 5711 5710 5709 5709 5707 5706 5704 5703 5701 5699 5697 5695 5692 5690 5687
5663 5665 5668 5670 5672 5674 5676 5678 5680 5682 5684 5685 5687 5688 5689 5691 5692 5693 5694 5695 5696 5697 5697 5697 5697 5697 5697 5696 5696 5695 5694 5693 5692 5691 5689 5688 5686 5684 5682 5679 5677 5674 5671 5668
5650 5653 5655 5657 5659 5661 5663 5665 5667 5669 5670 5672 5673 5674 5675 5677 5678 5679 5679 5680 5681 5681 5681 5681 5681 5681 5680 5680 5679 5679 5678 5677 5675 5674 5672 5670 5669 5666 5664 5662 5659 5656 5653 5650
5637 5639 5642 5644 5646 5648 5650 5652 5653 5655 5656 5657 5659 5660 5660 5661 5663 5664 5664 5664 5665 5665 5665 5665 5664 5664 5663 5663 5662 5661 5660 5659 5658 5656 5654 5652 5650 5648 5646 5643 5640 5637 5634 5631
5625 5627 5629 5631 5633 5634 5636 5638 5639 5641 5642 5643 5644 5645 5646 5646 5647 5648 5648 5648 5648 5648 5648 5648 5647 5646 5646 5645 5644 5643 5642 5641 5639 5638 5636 5634 5632 5629 5627 5624 5621 5618 5615 5612
5613 5615 5616 5618 5619 5621 5623 5624 5625 5626 5627 5628 5629 5630 5630 5631 5631 5631 5631 5631 5631 5631 5631 5630 5630 5629 5628 5627 5626 5625 5624 5622 5620 5618 5616 5614 5612 5610 5607 5605 5602 5599 5596 5593